Current Version              Previous Version:    01  02  03  04  05  06  07  08  09  10  11  12  13  14  15  16  17  18  19  20  21  22  23  24  25  26  27  28  29  30  
   31  32  33  34  35  36  37  38  39  40  41  42  43  44  45  46  47  48  49  50  51  52  53  54  55  56  57  58  59  60  

[Printable]
683
ASUS44 KFWD 221315
RWRTX
NORTH TEXAS HOURLY WEATHER ROUNDUP
NATIONAL WEATHER SERVICE FORT WORTH TX
700 AM CST MON DEC 22 2014

NOTE: "FAIR" INDICATES FEW OR NO CLOUDS BELOW 12,000 FEET WITH NO
SIGNIFICANT WEATHER AND/OR OBSTRUCTIONS TO VISIBILITY.

TXZ118-119-221400-
DALLAS/FORT WORTH METROPLEX

CITY           SKY/WX    TMP DP  RH WIND       PRES   REMARKS
DFW AIRPORT    PTCLDY    50  47  89 S10       29.58F
DALLAS LOVE    PTCLDY    53  49  86 S10       29.60S
FTW MEACHAM    CLEAR     50  47  89 S8        29.58F
DAL-EXECUTIVE  CLEAR     55  50  83 S6        29.60S
FTW-ALLIANCE   CLEAR     48  46  93 S12       29.57S
FTW-SPINKS     CLEAR     54  48  82 S13G20    29.61S
ARLINGTON      CLEAR     53  48  83 S8        29.60S
ADDISON        PTCLDY    54  48  82 S10G16    29.60F
MESQUITE       CLOUDY    55  52  88 S16G23    29.62
LANCASTER      PTCLDY    53  49  86 S9        29.63S
$$

TXZ091>094-102>105-117-120-121-131>134-221400-
NORTH CENTRAL TEXAS

CITY           SKY/WX    TMP DP  RH WIND       PRES   REMARKS
SHRMAN/DENISON MOCLDY    52  49  91 S12       29.60R
GAINESVILLE    CLEAR     46  44  95 S8        29.59R
BOWIE          CLEAR     45  44  96 S5        29.56R
BRIDGEPORT     CLEAR     49  47  93 SW8       29.58R
DECATUR        CLEAR     47  46  96 S9        29.57R
DENTON         PTCLDY    49  46  90 S10       29.58S
MCKINNEY       PTCLDY    52  49  89 S12       29.59F
GREENVILLE     CLOUDY    55  50  82 S14G22    29.62S
ROCKWALL       CLOUDY    56  52  85 S16G26    29.61R
TERRELL        CLOUDY    59  52  77 S14G26    29.63S
WAXAHACHIE     CLEAR     52  52  98 S13       29.62S
CLEBURNE       CLEAR     52  52 100 S13       29.62S
GRANBURY       CLEAR     52  48  84 S10       29.60F
$$

TXZ083>090-098>101-113>116-127>130-139>142-154-155-221400-
WESTERN NORTH TEXAS

CITY           SKY/WX    TMP DP  RH WIND       PRES   REMARKS
WICHITA FALLS  CLEAR     44  38  79 W13       29.54R WCI  38
WF-KICKAPOO    CLEAR     46  38  74 W12       29.55R WCI  40
VERNON         CLOUDY    42  38  86 NW8       29.59R VSB 1   WCI  37
ABILENE        PTCLDY    49  38  65 SW10      29.62R
ABILENE-DYESS  PTCLDY    56  33  41 W13G22    29.62R
BRECKENRIDGE   CLEAR     50  41  70 W7        29.59R
GRAHAM         CLEAR     47  43  87 SW5       29.56R
MINERAL WELLS  CLEAR     49  45  86 S8        29.57R
STEPHENVILLE   CLEAR     51  46  83 SW3       29.63R
COMANCHE       CLEAR     52  48  87 SW18G26   29.61S
BROWNWOOD      PTCLDY    48  45  87 SW6       29.66R
COLEMAN        PTCLDY    50  45  81 SW10      29.66R
BRADY          CLEAR     52  48  87 SW14      29.68R
$$

TXZ143>147-156>162-174-175-221400-
CENTRAL TEXAS

CITY           SKY/WX    TMP DP  RH WIND       PRES   REMARKS
WACO           MOCLDY    56  52  86 S17       29.64S
WACO-TSTC      CLEAR     55  54  94 S15G23    29.65
WACO-MCGREGOR  MOCLDY    55  48  76 S14G20    29.66S
HILLSBORO      CLEAR     53  49  87 S10       29.63S
CORSICANA      CLOUDY    59  52  77 S18G30    29.66S
MEXIA          CLOUDY    58  54  85 S20G26    29.67R
HEARNE         CLOUDY    59  56  89 S9        29.73R
CAMERON        PTCLDY    57  55  91 S17       29.69S
TEMPLE         MOCLDY    55  48  76 S14       29.65F
KILLEEN        MOCLDY    55  52  90 S9        29.67F
KILLEEN-SKYLRK MOCLDY    55  48  76 S15       29.63F
FORT HOOD      MOCLDY    55  52  90 SW15      29.65F
GATESVILLE     MOCLDY    55  52  88 SW13      29.67S
HAMILTON       PTCLDY    53  52  97 SW15G25   29.64S
$$

TXZ095>097-106>112-122>126-135>138-148>153-164>167-221400-
EAST TEXAS

CITY           SKY/WX    TMP DP  RH WIND       PRES   REMARKS
PARIS          CLOUDY    54  48  82 S9        29.64S
SULPHUR SPRNGS CLOUDY    56  52  84 S10G16    29.65F
MOUNT PLEASANT CLOUDY    55  51  87 S13       29.69R
MINEOLA        CLOUDY    57  54  88 S9G17     29.67S
TYLER          CLOUDY    58  53  84 S16       29.67S
LONGVIEW       CLOUDY    55  51  86 S9        29.70S
MARSHALL       CLOUDY    53  51  92 S5        29.75S
ATHENS         CLOUDY    55  52  88 S8        29.67R
PALESTINE      CLOUDY    57  55  94 S9        29.70S
JACKSONVILLE   CLOUDY    56  55  94 S10G16    29.71F FOG
HENDERSON      CLOUDY    55  54  96 S7        29.72S
NACOGDOCHES    CLOUDY    54  52  94 S9        29.73F
LUFKIN         CLOUDY    58  54  86 S9        29.73F
$$

SUPPLEMENTAL OBSERVATIONS (CENTRAL)

CITY           SKY/WX    TMP DP  RH WIND       PRES   REMARKS
LAKE TEXOMA      N/A     54  48  82 S7          N/A
PAT MAYSE LAKE   N/A     52  48  87 SE10        N/A
GREENVILLE       N/A     55  52  88 S10         N/A
CEDAR HILL       N/A     54  50  87 S9G17       N/A
PALESTINE        N/A     57  52  82 SW8G18      N/A
MCGREGOR         N/A     55  52  88 SW7G15      N/A
TEMPLE           N/A     55  52  88 S7G15       N/A
$$

SUPPLEMENTAL OBSERVATIONS (WEST)

CITY           SKY/WX    TMP DP  RH WIND       PRES   REMARKS
MILLERS CREEK    N/A     43  32  65 W7          N/A  WCI  39
POSSUM KINGDOM   N/A     52  41  66 SW9         N/A
GRANBURY         N/A     52  46  82 S10         N/A
HAMBY            N/A     45  37  76 SW6         N/A
$$

SUPPLEMENTAL OBSERVATIONS (EAST)

CITY           SKY/WX    TMP DP  RH WIND       PRES   REMARKS
TEXARKANA        N/A     52  46  82 SE7         N/A
LINDEN           N/A     52  48  87 S5          N/A
HENDERSON        N/A     55  52  88 S10         N/A
LUFKIN           N/A     55  52  88 MISG        N/A
N SABINE NF      N/A     52  50  93 MISG        N/A
$$

SUPPLEMENTAL OBSERVATIONS ARE A COLLECTION OF AUTOMATED INSTRUMENTS
THAT ARE MAINTAINED BY A VARIETY OF FEDERAL AND STATE AGENCIES.
CERTAIN ELEMENTS...SUCH AS HUMIDITY VALUES AND SUSTAINED WIND
SPEEDS...MAY BE APPROXIMATED.